{"data":{"norad_id":57371,"epoch":"2026-05-25T01:57:13.527648Z","epoch_age_seconds":61271,"freshness":"FRESH","line1":"1 57371U 23099AV  26145.08140657  .00001310  00000+0  58528-4 0  9991","line2":"2 57371  43.0023 170.1493 0001336 269.4062  90.6636 15.26732874157888","mean_motion":15.26732874,"eccentricity":0.0001336,"inclination_deg":43.0023,"raan_deg":170.1493,"arg_perigee_deg":269.4062,"mean_anomaly_deg":90.6636,"bstar":5.8528e-5,"rev_number":15788,"period_min":94.319053746923,"perigee_km":484.66987534017,"apogee_km":486.50386235793,"semimajor_km":6863.723868849,"source":"CELESTRAK","updated_at":"2026-05-25T13:38:18.294957Z"}}